Mercury, NV

12:12 AM PST on February 11, 2016 (GMT -0800)
Mercury

Weather History for KDRA - November, 2012

Change the Weather History Date:

Wednesday, November 28, 2012

  Actual Average Record
Temperature  
Mean Temperature 54 °F 46 °F  
Max Temperature 72 °F 58 °F 72 °F (2012)
Min Temperature 37 °F 34 °F 23 °F (1994)
Degree Days  
Heating Degree Days 10    
Cooling Degree Days 0    
Growing Degree Days 4 (Base 50)    
Moisture  
Dew Point 25 °F    
Average Humidity 30    
Maximum Humidity 49    
Minimum Humidity 12    
Precipitation  
Precipitation 0.00 in 0.01 in 0.33 in (1981)
Month to date precipitation 0.32  
Year to date precipitation 5.27  
Sea Level Pressure  
Sea Level Pressure 30.03 in    
Wind  
Wind Speed 8 mph (SSW)    
Max Wind Speed 22 mph    
Max Gust Speed 28 mph    
Visibility 10 miles    
Events      
T = Trace of Precipitation, MM = Missing Value Source: NWS Daily Summary

Daily Weather History Graph

Daily Weather History Graph

Search for Another Location

Airport or City:

Trip Planner

Search our weather history database for the weather conditions in past years. The results will help you decide how hot, cold, wet, or windy it might be!

Date:

Astronomy

Nov. 28, 2012 Rise Set
Actual Time 6:35 AM PST 4:28 PM PST
Civil Twilight 6:07 AM PST 4:57 PM PST
Nautical Twilight 5:35 AM PST 5:29 PM PST
Astronomical Twilight 5:04 AM PST 6:00 PM PST
Moon 4:47 PM PST (11/28) 6:36 AM PST (11/28)
Length of Visible Light 10h 50m
Length of Day
9h 53m
Full, 100% of the Moon is Illuminated
Nov 28
Full
Dec 6
Last Quarter
Dec 13
New
Dec 19
First Quarter
Dec 28
Full

Hourly Weather History & Observations

Time (PST) Temp. Windchill Dew Point Humidity Pressure Visibility Wind Dir Wind Speed Gust Speed Precip Events Conditions
12:52 AM 42.1 °F 39.2 °F 21.0 °F 43% 30.10 in 10.0 mi Variable 4.6 mph - N/A   Clear
1:52 AM 41.0 °F - 21.0 °F 45% 30.10 in 10.0 mi Calm Calm - N/A   Clear
2:52 AM 42.1 °F - 21.9 °F 45% 30.08 in 10.0 mi Calm Calm - N/A   Clear
3:52 AM 45.0 °F 40.1 °F 21.9 °F 40% 30.07 in 10.0 mi North 9.2 mph - N/A   Clear
4:52 AM 42.1 °F 40.2 °F 21.9 °F 45% 30.08 in 10.0 mi Variable 3.5 mph - N/A   Clear
6:52 AM 39.0 °F 36.8 °F 21.0 °F 49% 30.11 in 10.0 mi North 3.5 mph - N/A   Clear
7:52 AM 46.9 °F - 23.0 °F 39% 30.12 in 10.0 mi NNE 6.9 mph - N/A   Clear
8:52 AM 54.0 °F - 23.0 °F 30% 30.12 in 10.0 mi North 3.5 mph - N/A   Clear
9:52 AM 59.0 °F - 21.9 °F 24% 30.09 in 10.0 mi Calm Calm - N/A   Clear
10:52 AM 62.1 °F - 21.9 °F 21% 30.05 in 10.0 mi ESE 11.5 mph - N/A   Clear
11:52 AM 68.0 °F - 24.1 °F 19% 30.01 in 10.0 mi SW 9.2 mph - N/A   Clear
12:10 PM 69.8 °F - 24.8 °F 18% 30.06 in 10.0 mi SW 11.5 mph 20.7 mph N/A   Clear
12:52 PM 70.0 °F - 24.1 °F 18% 29.97 in 10.0 mi South 21.9 mph 26.5 mph N/A   Partly Cloudy
1:52 PM 69.1 °F - 24.1 °F 18% 29.97 in 10.0 mi SSW 16.1 mph 26.5 mph N/A   Overcast
2:52 PM 66.9 °F - 24.1 °F 20% 29.97 in 10.0 mi South 17.3 mph 27.6 mph N/A   Scattered Clouds
3:52 PM 66.0 °F - 26.1 °F 22% 29.96 in 10.0 mi SSW 18.4 mph 23.0 mph N/A   Partly Cloudy
4:52 PM 63.0 °F - 24.1 °F 23% 29.96 in 10.0 mi South 16.1 mph 21.9 mph N/A   Partly Cloudy
5:52 PM 62.1 °F - 25.0 °F 24% 29.99 in 10.0 mi WSW 15.0 mph - N/A   Clear
6:52 PM 62.1 °F - 27.0 °F 26% 29.99 in 10.0 mi South 13.8 mph - N/A   Mostly Cloudy
7:52 PM 62.1 °F - 28.0 °F 28% 29.98 in 10.0 mi South 19.6 mph 25.3 mph N/A   Clear
8:52 PM 62.1 °F - 28.9 °F 29% 29.99 in 10.0 mi SSW 20.7 mph 26.5 mph N/A   Clear
9:52 PM 61.0 °F - 34.0 °F 36% 29.99 in 10.0 mi SSW 13.8 mph - N/A   Partly Cloudy
10:52 PM 59.0 °F - 37.0 °F 44% 29.99 in 10.0 mi SSW 12.7 mph - N/A   Clear
11:52 PM 57.9 °F - 36.0 °F 44% 29.98 in 10.0 mi South 12.7 mph 25.3 mph N/A   Clear